sat.trackr.live / text

‹ back to catalog

STARLINK-37277

NORAD 68751 · 2026-082Z

PAYLOAD ACTIVE UNKNOWN

§ Identity

Operator
Country
US
Launch date
2026-04-15
Launch site
AFWTR
Launch vehicle
Mass (kg)
RCS (m²)

Purposes: comms

External: N2YO · Heavens-Above · Gunter

§ Orbital elements

Epoch: 2026-05-25T04:00:03.998880Z

Period
92.95 min
Inclination
97.2855°
Eccentricity
0.0001379
Mean motion
15.49175976 rev/d
Perigee alt
418.2 km
Apogee alt
420.1 km
Semi-major
6,797.3 km
B*
3.0309e-4
RAAN
8.8608°
Arg perigee
115.4944°
Mean anomaly
171.4803°
Rev number
600

§ Raw data

STARLINK-372771 68751U 26082Z   26145.16671295  .00016421  00000+0  30309-3 0  99912 68751  97.2855   8.8608 0001379 115.4944 171.4803 15.49175976  6007

JSON: /api/v1/satellites/68751 · /tle

For live sub-satellite position, see the globe view (requires WebGL).

§ Visibility from observer

Set your observer location to see the next 7 days of passes ≥ 10°. The values pass through the URL so the page stays shareable.

No JS? Fill the form by hand. The geolocation button needs JavaScript.